GAOFEN 1-03

导读

高分一号03星(GAOFEN 1-03)是中国于2018年3月31日发射的光学遥感卫星,隶属于中国高分专项工程。卫星搭载多光谱与宽幅成像相机,具备多分辨率、大范围成像能力,可服务于国土监测、农业估产、灾害防治、环境保护等领域,为国民经济建设与地理信息应用提供稳定遥感数据支撑。

基本信息
目录编号:
43260
目录名称:
GAOFEN 1-03
国际标识:
2018-031B
轨道中心:
EARTH
卫星名称:
GAOFEN 1-03
卫星全名:
--
卫星状态:
在轨 (已飞行3040 天)
发射日期:
2018-03-31 UTC
国别 :
中国 (CN)
星等 :
--
轨道信息
数据来源 国际轨道数据 AOE轨道数据
星历时间 2026-07-27T22:24:13+0800
9小时前
查看轨道信息
2026-07-25T01:00:00+0800
3天前
查看轨道信息
半长轴 7018.603km 7018.62km
偏心率 0.0001457 0.0001685
轨道倾角 98.050° 98.051°
近地点辐角 329.555° 343.237°
升交点赤经 270.863° 267.981°
平近点角 30.557° 135.277°
近地点 639.443km 639.3km
远地点 641.489km 641.666km
周期 97.529分钟 97.530分钟
每日圈数 14.764774 14.76472
详细信息
使用方式:
暂无
2D轨道图
3D轨道图
轨道高度分析图
轨道倾角分析图
轨道综合分析图
查看轨道综合分析图